Regional Weather Roundup
Issued by NWS

Current Version | Previous Version | Text Only | Print | Product List | Glossary On
Versions: 1 2 3 4 5 6 7 8 9 10 11 12 13 14 15 16 17 18 19 20 21 22 23 24 25 26 27 28
000
ASUS45 KBOI 042310
RWRID

IDAHO REGIONAL WEATHER ROUNDUP
NATIONAL WEATHER SERVICE BOISE ID
400 PM MST SUN DEC 04 2016

NOTE: "FAIR" INDICATES FEW OR NO CLOUDS BELOW 12000 FEET
WITH NO SIGNIFICANT WEATHER AND/OR OBSTRUCTIONS TO VISIBILITY

IDZ012-014-050000-
SOUTHWEST IDAHO


CITY           SKY/WX    TMP DP  RH WIND       PRES   REMARKS
BOISE          LGT RAIN  42  38  85 SE10      29.79F
CALDWELL       LGT RAIN  43  40  89 N6        29.82S
MOUNTAIN HOME  CLOUDY    46  33  61 NE9       29.79F
$$

IDZ016-017-050000-
SOUTHCENTRAL IDAHO


CITY           SKY/WX    TMP DP  RH WIND       PRES   REMARKS
BURLEY         CLOUDY    42  27  55 S15G24    29.80F
JEROME         CLOUDY    44  29  55 S10       29.80F
TWIN FALLS     CLOUDY    49  24  37 SW22G29   29.80F
$$

IDZ019>023-050000-
SOUTHEAST IDAHO


CITY           SKY/WX    TMP DP  RH WIND       PRES   REMARKS
IDAHO FALLS    CLOUDY    32  29  88 S29G38    29.76F FOG     WCI  18
POCATELLO      FLURRIES  36  28  73 S20G26    29.82F WCI  25
REXBURG        CLOUDY    32  30  92 S20G33    29.74F WCI  20
$$

IDZ006-010-011-018-031-032-050000-
CENTRAL IDAHO MOUNTAINS


CITY           SKY/WX    TMP DP  RH WIND       PRES   REMARKS
MCCALL         FLURRIES  33  27  78 W9        29.72F WCI  25
HAILEY         LGT SNOW  36  30  80 S7G17     29.77F WCI  30
STANLEY          N/A     32  31  96 CALM      29.69F
SALMON         CLOUDY    28  27  93 CALM      29.65F
CHALLIS        CLOUDY    36  34  92 VRB7      29.64F WCI  30
$$

IDZ002-004-006-007-026-050000-
NORTHERN IDAHO


CITY           SKY/WX    TMP DP  RH WIND       PRES   REMARKS
LEWISTON       CLOUDY    37  28  70 SW30G41   29.83R WCI  24
LOWELL           N/A     35  33  92 CALM      29.85R
COEUR D`ALENE  CLOUDY    32  28  85 W7        29.74S WCI  26
MULLAN PASS    LGT SNOW  21  18  88 VRB6G20   29.57R VSB 1   WCI  13
$$




USA.gov is the U.S. government's official web portal to all federal, state and local government web resources and services.